IRIDIUM 68

Last updated on Wed Nov 29 2017 00:19:03 GMT+0000 (Coordinated Universal Time)

1 25291U 98021G 17332.48674311 -.00000096 00000-0 -41267-4 0 9990 2 25291 86.3957 155.3828 0001974 86.5752 273.5669 14.34214590 28556
UTC large
Height (km)
Speed (km/s)
/
Latitude / Longitude
Inclination (degrees)
Orbital Period (minutes)
Azimuth
Elevation
Range (km)
Doppler Factor

Next 0 passes for location: London (51.5072 / 0.1276)

Sorry there are no passes over London.
IRIDIUM 68